Jackson Hawkins Field, MS

10:56 PM CDT on September 19, 2019 (GMT -0500)
Hawkins

Weather History for KHKS - July, 2019

Change the Weather History Date:

Wednesday, July 10, 2019

  Actual Average (WUND) Record (WUND)
Temperature  
Mean Temperature 88 °F -  
Max Temperature 98 °F - - (-1)
Min Temperature 77 °F - - (-1)
Cooling Degree Days 22    
Growing Degree Days 38 (Base 50)    
Moisture  
Dew Point 76 °F    
Average Humidity 79    
Maximum Humidity 100    
Minimum Humidity 44    
Precipitation  
Precipitation 0.16 in - - ()
Sea Level Pressure  
Sea Level Pressure 29.93 in    
Wind  
Wind Speed 4 mph (North)    
Max Wind Speed 15 mph    
Max Gust Speed 28 mph    
Visibility 9 miles    
Events Rain , Thunderstorm    
Averages and records for this station are not official NWS values.
T = Trace of Precipitation, MM = Missing Value Source: NWS Daily Summary

Daily Weather History Graph

Daily Weather History Graph

Search for Another Location

Airport or City:

Astronomy

Jul. 10, 2019 Rise Set
Actual Time 6:01 AM CDT 8:10 PM CDT
Civil Twilight 5:33 AM CDT 8:38 PM CDT
Nautical Twilight 4:59 AM CDT 9:12 PM CDT
Astronomical Twilight 4:22 AM CDT 9:49 PM CDT
Moon 2:30 PM CDT (7/10) 1:25 AM CDT (7/10)
Length of Visible Light 15h 04m
Length of Day
14h 08m
Waxing Gibbous, 64% of the Moon is Illuminated
Jul 10
Waxing Gibbous
Jul 16
Full
Jul 24
Last Quarter
Jul 31
New
Aug 7
First Quarter

Hourly Weather History & Observations

Time (CDT) Temp. Heat Index Dew Point Humidity Pressure Visibility Wind Dir Wind Speed Gust Speed Precip Events Conditions
12:53 AM 82.0 °F 90.2 °F 77.0 °F 85% 29.94 in 10.0 mi Calm Calm - N/A   Clear
1:53 AM 81.0 °F 87.9 °F 77.0 °F 88% 29.94 in 10.0 mi Calm Calm - N/A   Clear
2:53 AM 80.1 °F 85.8 °F 77.0 °F 90% 29.92 in 10.0 mi NW 4.6 mph - N/A   Partly Cloudy
3:53 AM 79.0 °F - 77.0 °F 94% 29.93 in 10.0 mi NW 4.6 mph - N/A   Clear
4:53 AM 79.0 °F - 77.0 °F 94% 29.93 in 9.0 mi Calm Calm - N/A   Clear
5:53 AM 78.1 °F - 75.9 °F 93% 29.94 in 10.0 mi Calm Calm - N/A   Clear
6:53 AM 79.0 °F - 75.9 °F 90% 29.95 in 10.0 mi Calm Calm - N/A   Clear
7:53 AM 84.9 °F 93.3 °F 75.0 °F 72% 29.97 in 10.0 mi NNE 5.8 mph - N/A   Clear
8:53 AM 89.1 °F 101.4 °F 77.0 °F 67% 29.98 in 10.0 mi Variable 5.8 mph - N/A   Clear
9:53 AM 91.0 °F 104.2 °F 77.0 °F 63% 29.98 in 10.0 mi Variable 5.8 mph - N/A   Clear
10:53 AM 93.0 °F 106.7 °F 77.0 °F 59% 29.98 in 10.0 mi ENE 6.9 mph - N/A   Partly Cloudy
11:53 AM 93.9 °F 108.4 °F 77.0 °F 58% 29.97 in 10.0 mi Variable 3.5 mph - N/A   Mostly Cloudy
12:53 PM 95.0 °F 106.7 °F 75.0 °F 52% 29.96 in 10.0 mi Variable 3.5 mph - 0.00 in   Partly Cloudy
1:53 PM 98.1 °F 111.2 °F 75.0 °F 48% 29.92 in 10.0 mi NW 5.8 mph - N/A   Partly Cloudy
2:53 PM 98.1 °F 108.0 °F 73.0 °F 44% 29.90 in 10.0 mi North 4.6 mph - N/A   Scattered Clouds
3:53 PM 95.0 °F 109.7 °F 77.0 °F 56% 29.87 in 10.0 mi WNW 10.4 mph - N/A   Scattered Clouds
4:53 PM 91.9 °F 110.4 °F 80.1 °F 68% 29.87 in 10.0 mi NW 9.2 mph - N/A   Clear
5:49 PM 82.4 °F 88.2 °F 73.4 °F 74% 29.92 in 10.0 mi South 15.0 mph 27.6 mph N/A   Overcast
5:53 PM 82.9 °F 88.0 °F 72.0 °F 69% 29.89 in 10.0 mi SSW 13.8 mph 20.7 mph N/A   Overcast
6:53 PM 82.0 °F 87.9 °F 73.9 °F 76% 29.91 in 10.0 mi NW 9.2 mph 18.4 mph N/A   Mostly Cloudy
7:19 PM 77.0 °F - 75.0 °F 94% 29.95 in 1.8 mi NW 8.1 mph - 0.05 in Rain Heavy Rain
7:38 PM 77.0 °F - 75.9 °F 96% 29.94 in 3.0 mi ESE 5.8 mph - 0.14 in Rain Light Rain
7:53 PM 77.0 °F - 75.9 °F 96% 29.92 in 10.0 mi SSE 5.8 mph - 0.14 in Rain Light Rain
8:40 PM 77.0 °F - 77.0 °F 100% 29.93 in 10.0 mi NE 5.8 mph - 0.00 in Thunderstorm Thunderstorm
8:53 PM 78.1 °F - 77.0 °F 96% 29.93 in 10.0 mi East 5.8 mph - 0.00 in   Clear
9:53 PM 78.1 °F - 75.9 °F 93% 29.95 in 10.0 mi NNE 5.8 mph - 0.01 in   Mostly Cloudy
10:53 PM 78.1 °F - 75.9 °F 93% 29.93 in 10.0 mi ENE 6.9 mph - 0.01 in Rain Light Rain
11:53 PM 77.0 °F - 75.9 °F 96% 29.90 in 10.0 mi ENE 5.8 mph - 0.00 in   Clear